STARLINK-34198, 64388

Orbit data source: Space-Track

STARLINK-34198, 64388 is a payload satellite owned by SpaceX/Seattle (US) in LEO that was launched on Fri, 13 Jun 2025 UTC via an FALCON 9 launch vehicle from the Air Force Eastern Test Range (AFETR). Payload-class satellites include a variety of spacecraft equipped with specific instruments for various scientific and technological missions. These include communications satellites like Starlink; space stations such as the ISS; scientific satellites like the Hubble; Earth observation satellites from companies like Planet Labs, Umbra, and HawkEye 360; GPS; miniature CubeSats for education and research; and military/defense satellites.

Loading next visibility...
Identifier
64388, 2025-127U
Orbit
LEO
Country
Flag of USUS
Related business
Manufacturer
SpaceX/Seattle
Mission
Operational Commercial Communications
Bus & Motor
STARLINK V2MO, Unknown motor
Mass
575 kg wet, ~530 kg dry
Launch date (UTC)
2025-06-13 (10 months ago)
Launch vehicle
FALCON 9
Launch site
Air Force Eastern Test Range (AFETR)
Object type
Payload
Rocket body
Debris
Shape & HBR
Box + 2 Pan, 17.7 m
Radar Cross Section
36.964 m², Large (>1 m²)

Expand to show TLE details & history
Last TLE update: 12 hours ago

TLE from 12 hours ago
0 STARLINK-34198
1 64388U 25127U   26095.18657121  .00031013  00000-0  11309-2 0  9993
2 64388  43.0023  29.7782 0001265 279.5400  80.5309 15.27604966 46527
Epoch: 2026-04-05T04:28Z
TLE epoch observation values (Epoch: 2026-04-05T04:28:39.752Z)
Latitude
-0°
Longitude
129.11696°
Altitude
482.607 km
Speed
7.626 km/s
True Right ascension
01h 59m 06s
True Declination
0° 00' 00"
Sunlit
Object was in daylight at epoch
Visualization orbit readout
Latitude
Unknown
Longitude
Unknown
Altitude
Unknown
Speed
Unknown
Apparent Right ascension
Unknown
Apparent Declination
Unknown
Sunlit
N/A
Visualization observer readout
Local Sidereal Time
22:14:54
Azimuth
Unknown
Elevation
Unknown
Doppler factor
Unknown
Orbital elements
Apogee altitude
485.787 km
Perigee altitude
484.051 km
Semi-major axis
6,863.056 km
Eccentricity
0.00013
Inclination
43.0023°
RAAN
29.7782°
Arg. of periapsis
279.54°
True anomaly
80.5452°
Mean anomaly
80.5309°
Eccentric anomaly
80.53805°
Mean motion
3.81739 °/min
Orbital period
94.31 mins
BSTAR
0.0011309
Loading maneuver chart data...
Computing Atmospheric mass density...
Loading historical data...
Loading historical data...
Loading historical data...
Loading historical data...
Loading historical data...
Loading historical data...
Loading historical data...

Documentation

Showing up to 5 results
|